{"data":{"norad_id":45676,"epoch":"2026-05-25T03:49:13.289376Z","epoch_age_seconds":61169,"freshness":"FRESH","line1":"1 45676U 20035V   26145.15918159  .00053447  00000+0  16178-2 0  9992","line2":"2 45676  53.1567  69.1619 0004168  99.2313 260.9160 15.33681562330432","mean_motion":15.33681562,"eccentricity":0.0004168,"inclination_deg":53.1567,"raan_deg":69.1619,"arg_perigee_deg":99.2313,"mean_anomaly_deg":260.916,"bstar":0.0016178,"rev_number":33043,"period_min":93.891720137925,"perigee_km":461.98727029998,"apogee_km":467.69157544609,"semimajor_km":6842.976422873,"source":"CELESTRAK","updated_at":"2026-05-25T13:38:16.428247Z"}}